sat.trackr.live / text

‹ back to catalog

QIANFAN-222

NORAD 69851 · 2026-155D

PAYLOAD ACTIVE UNKNOWN

§ Identity

Operator
Country
PRC
Launch date
2026-07-05
Launch site
WSC
Launch vehicle
Mass (kg)
RCS (m²)

External: N2YO · Heavens-Above · Gunter

§ Orbital elements

Epoch: 2026-09-19T19:58:25.236192Z

Period
106.68 min
Inclination
89.0085°
Eccentricity
0.0036184
Mean motion
13.49844585 rev/d
Perigee alt
1,045.9 km
Apogee alt
1,099.8 km
Semi-major
7,451.0 km
B*
-3.0594e+0
RAAN
53.8142°
Arg perigee
11.4677°
Mean anomaly
348.7290°
Rev number
1,062

§ Raw data

QIANFAN-2221 69851U 26155D   26262.83223653 -.01819272  00000+0 -30594+1 0  99902 69851  89.0085  53.8142 0036184  11.4677 348.7290 13.49844585 10625

JSON: /api/v1/satellites/69851 · /tle

For live sub-satellite position, see the globe view (requires WebGL).

§ Visibility from observer

Set your observer location to see the next 7 days of passes ≥ 10°. The values pass through the URL so the page stays shareable.

No JS? Fill the form by hand. The geolocation button needs JavaScript.